Time,TemperatureF,DewpointF,PressureIn,WindDirection,WindDirectionDegrees,WindSpeedMPH,WindSpeedGustMPH,Humidity,HourlyPrecipIn,Conditions,Clouds,dailyrainin,SolarRadiationWatts/m^2,SoftwareType,DateUTC
2013-06-13 09:33:00,51.0,38.0,-100.00,SSE,163,5.0,9.0,60,-99.99,,,0.00,565.000000,,2013-06-13 16:33:00,
2013-06-13 09:43:00,51.0,38.0,-100.00,SSE,163,5.0,9.0,60,-99.99,,,0.00,565.000000,,2013-06-13 16:43:00,
2013-06-13 09:53:00,51.0,38.0,-100.00,SSE,163,5.0,9.0,60,-99.99,,,0.00,565.000000,,2013-06-13 16:53:00,
2013-06-13 10:02:00,51.0,38.0,-100.00,SSE,163,5.0,9.0,60,-99.99,,,0.00,565.000000,,2013-06-13 17:02:00,
2013-06-13 10:43:00,55.0,40.0,-100.00,SSE,161,6.0,11.0,57,0.00,,,0.00,726.000000,,2013-06-13 17:43:00,
2013-06-13 10:53:00,55.0,40.0,-100.00,SSE,161,6.0,11.0,57,0.00,,,0.00,726.000000,,2013-06-13 17:53:00,
2013-06-13 11:02:00,55.0,40.0,-100.00,SSE,161,6.0,11.0,57,0.00,,,0.00,726.000000,,2013-06-13 18:02:00,
2013-06-13 11:33:00,55.0,38.0,-100.00,SSE,160,10.0,16.0,53,0.00,,,0.00,872.000000,,2013-06-13 18:33:00,
2013-06-13 11:43:00,55.0,38.0,-100.00,SSE,160,10.0,16.0,53,0.00,,,0.00,872.000000,,2013-06-13 18:43:00,
2013-06-13 11:52:00,55.0,38.0,-100.00,SSE,160,10.0,16.0,53,0.00,,,0.00,872.000000,,2013-06-13 18:52:00,
2013-06-13 12:01:00,55.0,38.0,-100.00,SSE,160,10.0,16.0,53,0.00,,,0.00,872.000000,,2013-06-13 19:01:00,
2013-06-13 12:33:00,54.0,38.0,-100.00,South,176,6.0,16.0,55,0.00,,,0.00,693.000000,,2013-06-13 19:33:00,
2013-06-13 12:43:00,54.0,38.0,-100.00,South,176,6.0,16.0,55,0.00,,,0.00,693.000000,,2013-06-13 19:43:00,
2013-06-13 12:53:00,54.0,38.0,-100.00,South,176,6.0,16.0,55,0.00,,,0.00,693.000000,,2013-06-13 19:53:00,
2013-06-13 13:01:00,54.0,38.0,-100.00,South,176,6.0,16.0,55,0.00,,,0.00,693.000000,,2013-06-13 20:01:00,
2013-06-13 13:33:00,54.0,39.0,-100.00,ESE,111,1.0,11.0,56,0.00,,,0.00,127.000000,,2013-06-13 20:33:00,
2013-06-13 13:44:00,54.0,39.0,-100.00,ESE,111,1.0,11.0,56,0.00,,,0.00,127.000000,,2013-06-13 20:44:00,
2013-06-13 13:53:00,54.0,39.0,-100.00,ESE,111,1.0,11.0,56,0.00,,,0.00,127.000000,,2013-06-13 20:53:00,
2013-06-13 14:01:00,54.0,39.0,-100.00,ESE,111,1.0,11.0,56,0.00,,,0.00,127.000000,,2013-06-13 21:01:00,
2013-06-13 14:34:00,51.0,40.0,-100.00,North,357,1.0,7.0,66,0.00,,,0.00,72.000000,,2013-06-13 21:34:00,
2013-06-13 14:43:00,51.0,40.0,-100.00,North,357,1.0,7.0,66,0.00,,,0.00,72.000000,,2013-06-13 21:43:00,
2013-06-13 14:52:00,51.0,40.0,-100.00,North,357,1.0,7.0,66,0.00,,,0.00,72.000000,,2013-06-13 21:52:00,
2013-06-13 15:01:00,51.0,40.0,-100.00,North,357,1.0,7.0,66,0.00,,,0.00,72.000000,,2013-06-13 22:01:00,
2013-06-13 15:43:00,56.0,39.0,-100.00,South,170,4.0,9.0,53,-99.99,,,0.00,303.000000,,2013-06-13 22:43:00,
2013-06-13 15:52:00,56.0,39.0,-100.00,South,170,4.0,9.0,53,-99.99,,,0.00,303.000000,,2013-06-13 22:52:00,
2013-06-13 16:01:00,56.0,39.0,-100.00,South,170,4.0,9.0,53,-99.99,,,0.00,303.000000,,2013-06-13 23:01:00,
2013-06-13 16:32:00,58.0,39.0,-100.00,SSW,192,5.0,13.0,49,0.00,,,0.00,521.000000,,2013-06-13 23:32:00,
2013-06-13 16:43:00,58.0,39.0,-100.00,SSW,192,5.0,13.0,49,0.00,,,0.00,521.000000,,2013-06-13 23:43:00,
2013-06-13 16:52:00,58.0,39.0,-100.00,SSW,192,5.0,13.0,49,0.00,,,0.00,521.000000,,2013-06-13 23:52:00,
2013-06-13 17:01:00,58.0,39.0,-100.00,SSW,192,5.0,13.0,49,0.00,,,0.00,521.000000,,2013-06-14 00:01:00,
2013-06-13 17:43:00,55.0,38.0,-100.00,SSE,168,6.0,17.0,52,0.00,,,0.00,610.000000,,2013-06-14 00:43:00,
2013-06-13 17:53:00,55.0,38.0,-100.00,SSE,168,6.0,17.0,52,0.00,,,0.00,610.000000,,2013-06-14 00:53:00,
2013-06-13 18:01:00,55.0,38.0,-100.00,SSE,168,6.0,17.0,52,0.00,,,0.00,610.000000,,2013-06-14 01:01:00,
2013-06-13 18:33:00,55.0,38.0,-100.00,South,170,5.0,14.0,53,0.00,,,0.00,281.000000,,2013-06-14 01:33:00,
2013-06-13 18:43:00,55.0,38.0,-100.00,South,170,5.0,14.0,53,0.00,,,0.00,281.000000,,2013-06-14 01:43:00,
2013-06-13 18:52:00,55.0,38.0,-100.00,South,170,5.0,14.0,53,0.00,,,0.00,281.000000,,2013-06-14 01:52:00,
2013-06-13 19:01:00,55.0,38.0,-100.00,South,170,5.0,14.0,53,0.00,,,0.00,281.000000,,2013-06-14 02:01:00,
2013-06-13 19:33:00,53.0,37.0,-100.00,SSE,152,5.0,15.0,55,0.00,,,0.00,230.000000,,2013-06-14 02:33:00,
2013-06-13 19:43:00,53.0,37.0,-100.00,SSE,152,5.0,15.0,55,0.00,,,0.00,230.000000,,2013-06-14 02:43:00,
2013-06-13 19:52:00,53.0,37.0,-100.00,SSE,152,5.0,15.0,55,0.00,,,0.00,230.000000,,2013-06-14 02:52:00,
2013-06-13 20:02:00,53.0,37.0,-100.00,SSE,152,5.0,15.0,55,0.00,,,0.00,230.000000,,2013-06-14 03:02:00,
2013-06-13 20:43:00,50.0,34.0,-100.00,SSW,208,3.0,11.0,54,0.00,,,0.00,57.000000,,2013-06-14 03:43:00,
2013-06-13 20:53:00,50.0,34.0,-100.00,SSW,208,3.0,11.0,54,0.00,,,0.00,57.000000,,2013-06-14 03:53:00,
2013-06-13 21:01:00,50.0,34.0,-100.00,SSW,208,3.0,11.0,54,0.00,,,0.00,57.000000,,2013-06-14 04:01:00,
2013-06-13 21:33:00,47.0,33.0,-100.00,NNW,337,1.0,8.0,58,0.00,,,0.00,8.000000,,2013-06-14 04:33:00,
2013-06-13 21:43:00,47.0,33.0,-100.00,NNW,337,1.0,8.0,58,0.00,,,0.00,8.000000,,2013-06-14 04:43:00,
2013-06-13 21:53:00,47.0,33.0,-100.00,NNW,337,1.0,8.0,58,0.00,,,0.00,8.000000,,2013-06-14 04:53:00,
2013-06-13 22:01:00,47.0,33.0,-100.00,NNW,337,1.0,8.0,58,0.00,,,0.00,8.000000,,2013-06-14 05:01:00,
2013-06-13 22:34:00,46.0,34.0,-100.00,SE,135,2.0,11.0,63,0.00,,,0.00,0.000000,,2013-06-14 05:34:00,
2013-06-13 22:43:00,46.0,34.0,-100.00,SE,135,2.0,11.0,63,0.00,,,0.00,0.000000,,2013-06-14 05:43:00,
2013-06-13 22:52:00,46.0,34.0,-100.00,SE,135,2.0,11.0,63,0.00,,,0.00,0.000000,,2013-06-14 05:52:00,
2013-06-13 23:02:00,46.0,34.0,-100.00,SE,135,2.0,11.0,63,0.00,,,0.00,0.000000,,2013-06-14 06:02:00,
2013-06-13 23:33:00,46.0,34.0,-100.00,North,349,3.0,8.0,63,0.00,,,-99.99,0.000000,,2013-06-14 06:33:00,
2013-06-13 23:43:00,46.0,34.0,-100.00,North,349,3.0,8.0,63,0.00,,,-99.99,0.000000,,2013-06-14 06:43:00,
2013-06-13 23:52:00,46.0,34.0,-100.00,North,349,3.0,8.0,63,0.00,,,-99.99,0.000000,,2013-06-14 06:52:00,